Location: Canazei
(46.4667°N, 11.7667°E)
Time: 18:10:51
(UTC+00:00)

N. Korean satellite - Pass Details

Date: 28 September 2021
Orbit: 450 x 495 km, 97.3° (Epoch: 15 October)

Event Time Altitude Azimuth Distance (km) Brightness Sun altitude
Rises 03:40:35 0° 27° (NNE) 2,537 10.8 -15.7°
Reaches altitude 10° 03:43:06 10° 46° (NE) 1,662 10.2 -15.3°
Maximum altitude 03:45:43 19° 93° (E) 1,206 9.6 -14.8°
Drops below altitude 10° 03:48:21 10° 141° (SE) 1,669 9.6 -14.4°
Sets 03:50:52 0° 159° (SSE) 2,552 10.3 -14.0°
